Retour au catalogue

ARIANE 2 DEB

ActifGTO
NORAD 33579·DEBRIS·🇫🇷 France

Lancé Jan 27, 1989 depuis Guiana Space Centre

Loading…

TLE

VieillissantSource: Space-Track

Époque: Sep 14, 2026, 18:49 UTC

1 33579U 89006BX  26257.78454765 -.00000776  00000-0 -37477-1 0  9999
2 33579  11.3434  55.1663 7058450  63.9057  38.6350  2.24783975197122

Suivez ARIANE 2 DEB en temps réel avec AllMySat

Download on the App Store